Wind_Speed
15 16 16 17 17 17 17 18 18 18 19 19 19 19 19 18 18 17 18 18 18 19 19 19 20 19 19 21 22 23 24 25 24 24 25 23 19 19 19 16 14 13 14 17 20 19 17 14 12 11 11 11 8 6 9 9 8 6 2 2 3 4 5 7 10 8 6 9 13 15 17 12 12 11 8 9 9 14 11 8 11 5 7 15 16 26 30 26
16 16 16 17 17 17 18 18 18 18 19 19 19 20 20 20 19 18 18 18 18 19 19 19 20 20 20 20 21 23 24 26 27 26 22 16 14 16 17 17 17 16 17 18 21 22 21 19 16 14 13 10 7 5 7 8 10 5 1 2 3 5 5 7 11 11 8 12 15 15 17 13 13 14 12 10 12 14 10 9 10 9 14 16 21 30 27 26
17 17 17 17 17 18 18 18 19 19 19 19 20 20 20 21 21 20 19 18 18 18 19 19 19 20 20 20 21 22 24 27 28 21 9 4 4 5 7 12 16 17 19 20 20 19 19 20 17 15 14 9 7 8 6 7 9 5 3 4 4 6 6 7 14 14 10 16 18 15 16 13 13 16 12 10 14 14 11 13 13 13 18 20 28 30 26 27
18 18 18 18 18 18 18 19 19 20 20 20 20 20 20 21 22 22 20 19 18 18 19 19 19 20 20 20 20 20 23 24 19 7 2 1 5 4 2 5 12 16 18 20 20 17 15 18 18 16 14 8 7 9 6 8 8 4 5 5 2 6 6 9 17 16 13 19 20 17 15 13 15 15 11 13 14 10 12 19 21 21 23 26 32 30 27 28
17 18 19 19 19 19 19 19 20 20 20 20 20 20 21 21 22 22 22 21 19 19 20 19 20 20 20 20 20 20 18 13 3 4 3 7 9 8 7 5 7 11 17 19 20 18 15 17 18 17 13 7 7 7 5 10 8 3 5 5 2 6 6 10 18 18 16 18 19 18 16 15 16 13 14 19 12 8 14 21 22 24 28 31 34 32 29 28
16 18 18 19 19 19 20 20 20 21 21 21 21 21 21 22 22 22 23 23 21 20 20 20 21 20 21 20 20 19 11 6 6 1 12 16 14 12 11 11 9 10 15 19 21 19 17 19 19 16 11 6 7 7 6 10 10 5 5 3 3 7 6 10 19 20 20 20 19 19 16 17 17 11 16 22 10 2 11 21 23 24 28 33 36 34 31 29
16 16 17 18 18 19 19 20 20 20 21 21 21 22 22 22 23 23 23 23 23 22 21 22 22 21 21 20 21 18 11 17 16 11 15 14 12 11 11 13 12 12 15 20 22 21 21 24 21 16 10 5 6 7 5 9 9 6 4 1 5 9 9 14 21 23 26 24 21 19 17 20 18 11 15 21 10 2 7 20 25 24 27 33 37 36 34 33
16 16 17 17 18 19 19 19 20 20 21 21 21 21 22 23 23 23 23 23 24 23 22 22 22 22 21 20 19 16 17 22 16 10 10 9 10 9 7 10 12 13 16 20 24 24 24 25 23 17 10 5 7 8 6 6 6 6 5 2 3 7 11 18 23 25 25 20 19 19 17 19 15 11 16 20 9 2 6 17 24 25 29 34 37 36 36 35
16 17 17 18 18 19 19 19 19 20 20 20 20 21 22 22 23 23 23 24 24 23 23 22 22 23 21 20 16 13 18 18 11 6 8 11 13 11 7 8 10 12 15 20 24 24 23 24 24 18 8 6 9 9 8 5 5 7 6 2 3 6 12 19 22 23 21 16 19 18 14 13 10 9 12 15 9 3 10 18 24 28 31 35 37 36 36 36
17 17 18 18 18 19 19 19 19 20 20 20 19 20 21 22 22 23 23 23 23 23 23 22 22 21 20 19 11 8 15 14 9 10 12 15 14 12 10 9 9 11 16 21 24 25 23 21 23 17 6 7 9 7 8 6 3 5 4 0 4 7 12 19 20 20 18 16 21 18 11 10 10 8 8 12 12 9 15 20 24 29 32 35 35 35 36 35
17 18 18 19 19 19 20 20 20 20 20 19 19 20 21 22 22 23 23 22 22 22 21 21 21 21 20 18 12 12 16 14 13 16 16 16 14 12 10 9 9 10 18 23 24 24 20 16 18 15 4 6 10 6 6 6 1 4 8 6 3 7 10 15 17 20 16 12 17 16 10 8 9 8 8 14 16 14 19 22 25 28 30 33 34 35 35 35
18 19 19 19 19 20 20 20 21 21 20 20 19 19 20 22 22 22 22 22 21 20 19 19 19 19 18 17 21 21 17 16 18 19 18 16 14 11 7 7 8 6 18 23 23 22 16 13 17 13 5 7 8 5 4 4 2 7 9 6 6 7 8 10 13 19 16 10 16 17 8 6 11 9 7 17 19 17 20 22 24 25 26 30 31 32 34 35
20 20 20 20 20 20 21 21 21 21 20 20 19 19 20 22 22 22 22 21 20 18 17 17 17 18 14 16 24 22 16 18 19 18 17 15 13 8 4 5 5 3 14 19 20 21 16 12 15 10 6 7 5 3 3 3 5 8 6 4 8 6 6 8 9 16 13 11 23 19 5 9 14 10 9 18 21 19 20 20 23 23 23 26 28 30 33 34
21 21 21 20 20 20 21 21 22 22 20 20 19 19 20 21 21 22 21 20 18 15 14 14 14 15 12 17 23 19 15 16 12 9 9 8 9 8 5 4 1 1 10 13 13 19 17 14 13 7 5 6 3 3 4 3 4 7 4 4 6 5 7 7 8 15 11 9 23 18 7 7 10 11 13 19 23 22 21 21 22 22 22 24 26 28 30 32
21 21 21 21 21 21 21 21 22 22 21 20 19 19 20 21 20 20 19 18 16 14 14 13 14 12 12 20 22 12 9 9 3 1 3 2 6 8 7 6 4 4 9 12 12 14 16 16 12 6 5 7 5 3 3 3 3 5 4 4 5 4 7 7 8 15 11 10 19 15 7 6 5 12 17 19 23 23 22 21 22 23 23 24 25 27 28 29
20 21 21 21 21 20 20 21 22 23 22 20 19 19 19 20 20 19 18 16 14 13 13 13 13 10 8 13 11 4 5 4 4 2 6 4 3 7 8 9 8 8 8 11 12 10 12 14 10 6 5 6 5 4 4 3 4 3 2 5 7 5 6 7 8 13 10 11 16 14 7 4 2 11 20 21 23 23 20 21 22 23 23 23 24 25 26 27
21 21 21 21 21 20 20 20 21 23 21 20 20 19 18 20 18 16 15 14 13 14 14 13 12 10 11 12 8 6 6 4 5 3 7 7 4 7 9 11 11 11 10 10 11 10 10 10 7 6 4 3 4 6 6 5 6 4 2 3 6 7 8 8 8 11 11 13 15 14 9 5 2 9 19 22 24 23 20 21 22 22 23 23 23 23 24 28
22 22 22 22 21 20 20 20 21 22 20 19 20 20 19 18 15 14 14 13 13 12 12 11 8 6 8 8 6 5 6 6 7 8 8 6 4 9 9 10 11 13 11 9 10 11 9 6 4 4 4 4 5 8 8 6 7 8 6 5 5 6 9 9 9 12 15 14 15 14 12 12 4 8 16 20 23 23 21 21 22 22 23 23 23 23 25 29
22 23 23 23 22 21 20 20 21 20 20 18 17 18 17 14 12 10 9 9 9 8 8 6 7 6 9 11 12 10 12 15 15 13 10 5 4 10 11 10 10 13 10 7 8 10 8 5 3 5 6 7 8 10 9 7 10 12 9 7 8 9 9 9 7 11 16 13 14 16 15 15 8 8 13 18 21 21 19 19 20 21 22 22 23 24 26 30
22 23 23 24 23 21 20 21 21 20 20 16 14 14 11 10 7 4 8 13 14 13 16 16 16 21 25 26 25 21 19 21 19 15 10 6 4 9 12 11 11 11 7 6 6 8 9 6 6 8 8 10 11 10 8 5 9 12 8 6 10 11 9 8 7 9 16 11 12 15 11 10 6 6 11 16 19 19 19 19 19 21 21 22 23 23 27 31
22 22 23 24 24 22 20 21 21 20 16 12 14 10 5 6 3 4 13 18 18 17 22 24 23 29 33 30 27 24 18 15 16 14 10 7 5 8 11 11 9 6 4 4 4 5 8 9 9 8 9 11 11 9 7 4 7 10 10 8 9 9 6 7 7 9 14 10 9 9 8 9 5 4 9 14 16 19 22 22 21 22 21 21 23 24 27 29
22 22 24 24 24 22 19 20 21 17 11 10 12 6 5 6 5 6 10 13 22 24 23 24 24 29 32 28 26 26 18 10 14 17 14 12 9 7 9 8 6 5 4 4 4 4 7 9 9 8 6 7 5 6 8 7 8 9 8 7 8 7 3 5 6 8 11 9 7 6 9 10 5 4 10 15 18 19 22 23 21 22 21 22 24 26 26 25
22 23 24 24 25 22 19 21 18 11 9 11 10 1 3 5 6 9 8 8 20 26 22 21 21 24 25 21 18 19 18 13 12 15 15 17 14 11 10 7 6 5 5 7 7 6 7 6 8 7 6 8 5 5 9 7 7 7 7 8 7 7 7 5 6 8 9 4 2 5 7 8 4 5 9 16 20 17 17 20 19 20 22 25 28 28 28 27
23 24 24 25 26 22 20 20 11 8 12 13 5 5 1 6 7 11 7 6 11 16 15 13 13 16 15 11 8 13 18 15 12 13 14 18 17 13 11 8 6 6 5 8 8 7 5 1 6 9 7 11 9 7 10 8 6 6 8 10 7 9 11 7 7 9 7 2 2 5 5 8 7 9 9 12 17 17 16 18 19 20 23 25 25 27 31 34
23 24 25 26 27 25 22 14 7 10 14 8 2 6 2 9 10 11 5 4 6 8 8 6 7 9 6 4 5 10 12 12 17 17 15 20 20 12 8 8 6 6 7 8 6 8 6 1 7 12 9 11 10 8 11 10 7 6 8 11 8 11 11 7 11 10 5 5 6 7 6 7 6 11 12 9 12 16 16 18 21 23 24 24 23 24 29 34
23 24 26 27 27 27 21 11 9 14 12 3 4 5 6 10 11 9 2 1 4 4 2 2 4 2 1 4 8 9 6 6 12 16 16 20 21 14 8 6 3 4 7 7 3 4 4 3 7 10 11 12 10 9 11 10 8 5 7 9 8 9 10 11 14 11 6 6 8 12 10 7 4 8 11 9 11 15 15 16 21 24 25 26 27 27 29 32
23 23 25 26 27 28 24 15 14 15 8 2 4 8 9 9 8 5 0 2 3 2 1 3 4 1 2 4 11 10 3 1 4 12 20 21 21 18 11 7 4 3 5 4 3 3 3 6 6 7 11 12 11 9 9 10 9 4 5 11 11 9 11 14 13 10 6 2 5 12 10 7 7 6 6 10 12 13 15 17 20 24 27 29 29 30 32 35
24 23 24 26 25 26 26 21 17 13 7 5 6 6 7 8 6 2 0 2 1 1 1 3 3 1 1 5 15 10 3 1 0 6 20 23 18 15 11 10 9 7 7 6 6 2 4 8 9 8 9 9 8 7 9 13 9 2 4 9 11 10 12 14 12 9 5 3 4 8 7 5 8 4 5 9 11 12 17 20 20 25 28 30 31 32 35 39
25 23 23 25 24 22 24 22 16 12 9 6 6 7 7 7 4 2 0 1 1 1 1 3 2 1 2 5 14 11 6 2 1 0 13 22 18 11 7 12 13 10 10 10 9 3 3 8 11 11 8 7 6 3 9 15 8 2 7 7 5 5 7 9 8 5 5 5 8 9 10 7 8 5 5 6 8 12 16 16 18 25 30 31 31 33 35 39
26 23 23 25 25 23 23 20 14 13 12 8 7 7 6 2 3 3 3 2 2 1 1 1 2 2 2 3 5 9 7 5 2 2 8 14 15 8 6 12 12 8 7 7 9 6 1 3 8 9 7 8 7 3 8 13 8 9 10 8 7 4 3 3 1 2 4 6 8 10 15 11 8 6 6 7 9 12 12 12 14 21 27 30 31 33 34 38
26 24 23 24 25 24 24 20 15 15 13 8 6 4 2 2 2 3 4 1 2 2 1 1 1 2 1 1 2 3 5 5 3 6 7 8 9 6 7 8 6 5 5 6 6 4 3 4 4 5 7 8 8 6 7 7 7 9 7 7 7 4 2 3 2 2 5 6 6 8 14 13 11 7 6 9 12 12 12 12 14 17 25 32 34 35 35 38
28 25 23 22 23 23 23 20 16 16 14 8 5 4 4 3 3 5 2 0 2 1 1 1 1 1 2 1 2 2 3 4 5 7 8 8 7 8 8 8 7 6 6 7 6 3 6 7 2 3 6 9 9 7 6 4 5 8 6 8 7 3 4 4 3 4 5 5 2 3 10 10 10 9 7 8 11 13 14 15 16 17 23 29 34 37 37 39
28 26 24 21 20 21 20 18 16 15 13 8 6 4 3 4 5 6 5 3 1 1 1 1 0 2 3 3 2 2 1 2 4 6 8 8 8 9 8 6 11 10 4 6 8 5 6 4 4 5 4 8 12 9 7 6 6 9 8 9 8 5 6 6 3 2 4 5 1 4 8 7 5 8 12 14 17 18 17 18 18 14 14 20 27 33 34 37
29 27 26 21 17 18 18 15 14 13 11 9 8 4 5 6 3 6 9 7 2 2 0 1 3 4 3 2 3 1 1 0 1 3 5 7 8 9 6 4 10 8 3 5 7 7 8 6 7 9 4 7 13 10 7 7 7 9 7 7 8 6 6 5 4 4 4 3 1 5 6 6 4 2 6 12 17 17 16 17 17 14 15 16 19 25 29 33
30 27 24 19 14 13 14 12 11 12 10 11 8 4 8 7 2 3 7 6 3 4 2 1 3 6 4 1 1 1 1 0 2 1 5 7 7 9 8 7 9 7 5 6 4 4 9 7 5 6 4 8 11 7 6 8 7 7 4 6 8 6 5 3 2 4 3 2 2 5 4 4 3 5 7 7 9 12 14 14 15 17 19 17 17 23 29 33
30 26 21 15 11 10 12 13 12 12 12 13 7 6 8 4 2 3 3 4 4 2 2 1 1 4 5 2 2 1 1 1 2 1 3 4 4 7 9 7 10 11 9 7 3 3 6 5 4 5 4 8 10 8 9 9 6 4 5 7 4 3 5 4 1 1 2 4 4 4 4 3 2 8 9 7 8 11 11 11 14 16 18 19 21 26 31 36
30 29 23 11 8 10 12 13 13 13 16 13 7 7 6 3 3 4 1 2 2 2 2 3 3 3 3 2 3 1 1 1 0 2 1 2 3 5 7 6 10 14 13 10 5 2 4 5 6 9 10 11 11 11 11 11 7 4 7 8 4 2 2 2 3 3 4 7 4 4 7 6 3 4 3 2 7 12 11 11 12 10 14 20 24 29 34 37
31 32 21 6 6 12 13 11 10 16 17 10 8 7 5 5 5 4 2 2 1 2 3 5 3 2 2 2 2 1 2 2 0 3 1 3 2 5 7 6 9 14 16 14 7 3 5 5 4 9 12 9 8 9 10 10 6 1 4 9 6 4 4 2 4 5 5 7 4 5 7 6 6 5 3 4 6 9 11 10 8 8 14 20 23 29 34 36
30 26 13 4 7 12 17 13 8 19 13 6 9 7 4 5 6 6 7 3 1 2 3 4 4 2 2 2 2 1 1 2 1 2 2 3 2 3 5 4 8 13 17 15 8 4 5 6 4 4 6 5 6 7 10 10 6 1 3 8 3 3 5 4 4 4 6 7 4 5 6 4 6 6 6 9 8 7 10 9 7 11 16 21 23 28 33 37
25 16 7 5 10 13 16 10 7 13 7 5 7 5 2 4 6 10 13 8 3 4 3 3 5 4 4 3 4 3 2 3 4 3 2 2 2 3 5 4 5 7 11 14 10 6 5 6 6 2 2 4 6 7 11 12 9 5 7 8 4 2 1 2 3 2 4 6 4 6 7 4 4 5 8 12 10 9 11 10 8 9 15 22 27 30 34 38
20 8 5 8 15 17 13 4 6 6 4 3 3 3 3 4 4 7 11 10 8 7 5 4 5 5 4 5 5 3 3 4 5 4 3 3 4 3 5 6 5 5 5 8 7 6 5 4 6 4 4 7 8 9 12 14 12 10 9 8 9 7 4 5 6 3 2 4 4 5 7 4 5 6 9 11 10 10 11 9 8 10 14 19 24 29 34 37
13 4 8 14 18 16 8 2 4 4 4 4 3 4 5 6 6 6 7 8 8 7 5 4 5 5 4 5 5 4 4 5 6 6 5 6 8 6 4 5 6 6 4 4 7 9 5 3 6 8 7 9 8 6 7 11 13 13 12 11 11 9 8 9 8 4 3 3 1 1 6 4 4 5 8 10 9 10 11 9 8 14 20 19 16 22 29 33
9 12 15 12 10 6 2 3 3 4 5 5 6 7 7 5 4 4 4 6 6 5 5 5 6 7 7 7 7 7 7 7 8 8 7 7 10 11 10 6 3 2 3 3 6 9 5 2 5 7 6 6 5 2 2 2 7 12 13 12 12 12 13 11 5 3 5 5 4 2 5 4 3 2 5 7 7 9 11 13 12 16 24 22 15 17 23 28
14 19 15 5 3 1 2 3 2 3 5 5 6 8 8 7 5 6 6 5 4 4 4 5 6 7 7 8 9 9 8 7 8 10 10 7 6 10 14 13 6 3 5 4 3 7 6 4 5 6 5 5 6 6 5 3 5 8 8 9 12 16 14 7 1 2 5 8 10 7 6 5 3 1 1 4 8 9 12 15 15 16 23 23 17 17 19 23
13 14 9 3 4 3 4 2 3 2 4 5 5 7 8 8 8 11 11 8 7 6 4 4 6 7 7 7 8 9 10 9 7 6 7 6 5 5 9 11 8 6 8 8 7 7 5 4 6 8 8 9 9 8 7 5 4 4 4 6 10 15 14 7 3 5 7 6 8 9 6 4 2 2 3 5 7 9 13 15 14 17 25 25 21 19 18 20
6 5 5 5 5 4 6 2 3 3 4 5 5 4 5 6 7 11 13 11 12 11 8 6 6 6 7 9 9 9 11 12 10 7 5 5 4 2 2 4 5 7 11 12 11 8 2 3 9 11 10 10 9 7 6 6 7 8 8 10 11 12 14 9 5 7 5 4 6 9 6 6 6 6 6 7 8 9 12 11 12 21 30 29 24 20 18 20
3 2 2 5 5 3 3 1 4 4 5 5 4 3 5 7 6 6 9 8 8 11 9 8 8 8 8 9 10 10 11 12 13 11 9 8 6 4 5 8 8 8 9 9 9 8 2 4 11 13 13 14 14 12 10 11 13 14 14 15 14 14 15 14 11 8 5 5 8 7 6 9 10 8 9 10 9 8 8 9 14 23 30 27 22 19 19 21
4 4 4 5 4 3 2 3 7 8 7 5 3 4 7 8 7 5 4 3 4 7 7 6 10 12 10 8 7 7 8 9 11 11 9 8 8 7 8 10 8 5 5 5 5 6 3 6 10 12 15 16 18 17 12 11 14 15 17 18 17 17 17 16 14 10 8 8 11 7 8 10 10 10 10 10 10 10 13 18 22 23 25 23 20 20 22 23
5 6 6 5 4 5 8 10 10 10 8 5 4 5 7 9 8 5 3 4 4 5 7 7 6 5 6 6 4 4 6 6 8 7 6 8 8 6 6 7 6 5 1 3 2 2 2 5 6 9 14 15 17 16 12 12 13 12 15 17 17 19 20 19 18 16 14 13 12 9 11 12 11 10 10 11 13 13 14 18 19 19 22 22 21 22 24 26
5 5 6 7 6 10 12 10 8 6 6 5 5 5 5 6 5 6 6 6 4 1 4 4 1 4 5 5 5 7 6 3 5 4 3 6 7 5 5 5 3 4 0 3 3 1 1 2 1 5 9 11 13 14 12 14 15 15 16 16 15 16 17 17 16 13 13 11 9 7 8 9 8 7 7 8 9 8 9 11 13 18 21 22 22 24 26 29
7 7 7 7 6 8 8 7 5 5 4 4 4 3 3 3 5 9 8 8 10 7 1 3 6 7 5 4 6 7 2 4 6 8 8 8 7 3 3 2 1 2 0 3 3 3 2 2 0 2 4 6 7 9 12 15 16 17 19 17 14 12 12 12 11 9 10 10 8 7 6 6 7 7 6 7 6 6 8 10 13 18 21 22 25 27 28 30
9 7 5 6 5 5 6 6 4 5 4 2 2 4 5 5 7 10 7 5 7 8 3 8 10 8 5 4 4 2 5 10 13 16 14 13 13 11 8 5 3 4 1 3 1 2 3 3 2 1 3 4 2 3 6 8 9 11 14 16 16 13 10 10 9 9 11 11 9 8 8 8 7 6 6 8 8 8 11 14 18 21 22 25 28 29 30 31
Wind_Direction
320 319 320 320 321 321 321 322 321 322 321 320 320 320 320 321 322 322 322 322 324 325 326 326 325 323 323 323 322 322 319 316 312 303 292 283 284 281 268 257 246 238 235 226 219 215 206 200 193 187 181 188 206 215 212 207 185 167 184 221 186 196 193 185 185 174 147 156 164 167 174 163 152 161 141 138 134 140 146 133 148 120 127 161 169 166 163 164
316 316 316 316 316 317 318 318 318 319 318 318 319 318 318 318 318 319 319 320 321 323 325 325 325 325 324 323 322 322 320 317 312 304 296 290 288 278 265 248 236 229 224 221 217 214 210 206 198 191 185 190 204 205 209 196 184 181 175 223 217 198 185 192 187 170 159 162 163 168 174 169 158 157 156 151 144 153 149 133 142 119 132 154 164 165 164 167
316 315 314 313 313 313 314 314 315 315 315 316 315 316 316 315 316 315 316 316 317 320 321 323 324 324 326 325 324 322 323 320 312 305 289 276 320 306 272 239 225 223 221 221 219 217 217 213 210 204 194 200 201 193 201 184 187 199 203 235 234 193 184 194 187 180 172 158 157 166 171 171 160 158 171 165 155 169 168 155 159 147 144 152 163 167 165 168
318 316 315 314 312 312 312 312 312 312 312 313 313 314 313 313 313 312 313 313 313 315 316 319 320 322 325 325 325 324 326 323 312 307 169 181 346 331 295 221 214 222 222 220 222 219 214 213 218 210 197 202 197 192 199 187 188 176 200 243 222 174 190 195 187 181 171 161 160 160 163 169 164 164 173 160 157 186 194 178 174 165 157 157 165 169 168 170
320 319 318 315 313 313 312 310 310 310 310 310 311 311 311 310 309 309 310 309 309 310 311 314 315 319 321 321 323 322 329 326 286 106 5 308 317 295 271 246 219 225 221 218 221 211 196 202 205 197 193 197 184 190 204 195 191 172 214 252 183 173 198 186 178 173 163 158 157 158 166 166 161 172 177 169 169 194 198 191 181 172 167 166 169 170 170 173
324 322 320 318 317 315 313 312 310 309 309 309 309 309 309 307 306 307 306 306 306 305 307 309 311 314 315 318 318 317 323 293 229 259 317 303 302 292 268 255 248 241 224 215 214 205 187 187 188 187 192 194 183 191 199 190 195 215 227 253 215 212 217 174 170 168 160 157 162 168 165 154 160 181 183 183 190 192 195 192 184 179 175 172 173 173 174 176
327 325 323 321 319 318 316 314 312 311 310 309 309 308 307 305 304 304 302 303 302 301 303 305 307 309 312 313 311 312 288 270 273 290 299 297 305 293 265 257 253 246 229 211 205 199 183 181 185 187 187 187 190 196 192 178 189 224 231 245 245 234 218 176 168 168 165 166 169 163 156 161 173 178 178 192 210 317 209 195 188 182 178 175 176 178 180 181
329 328 325 323 322 320 318 317 315 314 312 311 310 308 306 304 303 301 300 300 299 300 300 301 304 305 309 309 309 308 281 278 295 300 284 292 318 314 274 253 248 245 232 215 206 196 182 183 187 186 189 193 186 182 175 172 186 218 225 229 249 231 203 175 168 168 166 163 158 154 162 172 177 164 173 194 212 295 204 191 187 181 178 178 179 181 183 186
329 329 327 325 324 323 321 320 319 317 316 315 313 310 306 304 301 300 298 298 299 299 299 300 300 301 304 303 303 297 282 290 309 301 296 304 312 320 302 262 253 245 227 213 206 195 183 187 191 188 197 192 178 175 177 199 200 199 216 243 232 207 181 171 167 167 161 152 153 157 166 169 163 155 176 196 206 197 175 179 182 179 177 178 181 184 186 188
328 327 326 325 324 323 322 322 321 320 320 318 317 312 308 304 302 300 298 298 298 298 299 298 297 300 298 295 292 276 281 297 306 298 306 305 305 318 310 282 269 241 214 202 197 193 186 189 192 190 198 184 174 166 171 197 201 177 181 253 222 188 168 169 164 161 155 153 164 161 157 160 162 173 192 197 201 188 165 169 178 178 178 179 182 186 189 191
327 325 324 323 323 323 322 322 321 321 321 321 320 315 310 306 303 301 300 299 298 298 298 297 298 297 293 286 260 254 281 295 297 298 300 300 302 309 306 294 284 230 204 194 189 191 188 188 189 186 193 180 172 163 177 203 243 156 137 88 123 150 152 163 158 158 151 152 166 148 131 151 171 207 213 181 186 187 168 165 174 176 178 181 184 188 192 194
327 326 324 322 322 321 321 321 320 320 320 321 320 317 313 308 305 304 303 301 300 300 298 298 298 294 293 277 258 264 286 291 290 292 293 296 295 295 296 296 301 232 199 193 187 182 177 181 186 187 193 174 163 160 190 211 190 158 145 102 114 130 143 158 158 164 158 152 157 137 120 178 199 213 190 171 175 176 170 166 171 176 178 182 185 189 194 196
326 325 324 323 323 322 321 321 320 320 320 321 319 317 313 309 309 307 305 304 302 302 300 299 295 293 288 266 270 284 291 284 285 289 288 287 280 271 264 276 314 250 196 195 194 183 175 179 181 180 179 171 157 150 133 121 146 149 148 132 136 139 161 164 162 167 159 151 158 154 173 212 208 198 158 170 171 164 168 169 173 178 180 182 185 190 196 198
325 325 324 324 323 322 322 322 320 319 321 322 318 316 312 311 311 309 307 305 303 302 297 294 291 292 275 266 286 297 288 281 284 291 288 278 258 237 218 220 304 199 183 187 194 187 184 184 180 177 186 184 159 130 104 86 143 141 135 146 154 171 169 163 168 169 158 153 168 177 227 222 198 181 161 171 172 168 172 173 178 181 181 185 187 192 197 199
325 325 324 323 324 323 323 323 320 319 322 322 318 315 312 311 312 310 307 303 300 295 289 290 288 289 276 281 294 293 273 271 247 33 14 317 241 215 196 189 173 153 168 177 183 187 191 193 196 200 193 195 183 147 124 108 139 147 154 166 190 198 158 159 183 180 167 161 179 189 229 242 193 171 169 174 176 175 176 177 181 183 184 189 190 194 198 200
327 325 323 323 324 323 324 323 320 320 323 324 318 315 313 313 313 309 305 299 294 287 286 289 285 287 283 289 299 279 261 234 172 62 15 358 238 199 185 181 174 164 166 178 182 187 192 192 199 198 175 184 187 166 142 136 153 182 216 178 186 190 160 166 186 194 176 153 184 202 224 254 176 168 171 175 180 180 180 181 183 186 187 190 193 196 199 201
329 327 324 324 324 325 326 322 320 320 324 326 318 315 315 314 313 307 298 291 286 282 285 285 279 280 272 270 274 258 252 208 193 293 339 332 237 190 179 177 178 177 170 172 178 177 177 176 182 188 178 170 171 169 172 178 174 183 230 180 185 185 169 165 171 195 184 161 186 208 232 246 132 163 175 178 182 183 185 184 185 188 189 192 195 198 201 204
331 329 326 325 325 328 328 323 321 321 325 328 321 319 319 315 310 301 289 284 284 283 285 276 259 273 268 257 258 242 237 248 264 281 307 316 212 180 176 180 179 173 162 158 172 176 174 170 179 184 175 176 174 183 192 185 172 180 189 184 190 188 184 181 173 182 182 182 192 197 223 236 193 159 181 183 185 187 190 189 188 190 190 193 195 199 205 209
332 330 326 325 326 330 331 325 323 324 327 329 324 321 319 316 310 295 283 279 278 279 283 250 220 258 271 266 270 264 270 280 283 279 279 284 201 177 175 179 172 163 158 156 171 179 173 158 188 196 187 186 182 192 198 179 178 185 187 190 187 188 198 189 163 166 174 186 201 197 214 227 204 167 184 187 188 193 196 193 192 193 193 194 196 201 206 211
333 330 326 325 325 331 333 326 325 329 330 330 331 329 330 331 319 294 304 295 275 266 270 263 255 263 266 270 275 276 281 281 276 274 266 250 196 170 169 164 156 158 164 167 168 178 180 185 202 198 186 180 181 190 187 175 188 183 177 203 203 197 200 173 130 151 171 187 211 209 225 235 216 182 188 189 190 197 200 197 198 196 195 196 198 202 207 214
334 329 326 324 324 330 334 327 326 333 334 339 343 349 31 28 3 322 322 308 289 279 277 277 271 267 267 270 272 272 280 283 269 256 238 215 178 164 170 158 150 167 171 146 131 155 188 207 203 190 185 180 183 183 157 148 189 184 180 198 213 213 199 160 139 150 170 192 214 214 247 250 238 204 193 191 195 202 202 201 202 199 198 199 201 205 210 215
335 330 327 324 323 329 335 328 328 334 340 347 342 357 89 56 30 341 326 303 297 298 290 285 277 270 273 274 269 264 261 265 260 246 226 211 202 188 175 163 172 175 141 141 138 157 199 219 196 177 180 172 170 178 166 161 178 189 188 191 210 206 139 133 150 150 166 199 211 196 235 244 237 214 203 199 206 211 207 204 205 202 200 202 204 207 210 211
336 331 328 325 324 328 336 330 330 338 342 339 329 251 104 29 16 342 319 277 294 301 291 282 275 272 278 282 273 250 231 227 245 245 227 212 208 200 177 165 183 164 146 181 188 182 201 220 185 162 163 161 149 173 172 161 175 189 184 193 205 174 168 188 169 158 164 189 199 171 228 251 226 215 216 210 213 219 215 210 210 208 206 208 209 210 210 211
336 333 329 328 325 326 337 334 334 351 340 335 313 179 81 357 357 342 316 253 286 297 288 277 268 269 277 287 266 218 212 218 224 230 220 199 185 183 182 167 168 171 172 187 194 205 219 257 159 156 171 177 164 168 176 173 186 195 192 203 198 167 192 204 143 145 153 139 123 150 239 259 216 215 223 211 213 220 218 213 214 216 215 216 215 214 216 218
336 334 330 330 325 324 337 338 332 346 342 341 185 177 346 345 344 342 320 252 281 280 279 272 249 257 261 251 214 195 205 221 225 222 207 191 177 163 170 169 175 192 181 171 185 220 235 287 154 162 176 188 176 173 186 186 186 201 209 211 197 176 187 162 136 147 168 212 197 174 243 260 199 214 225 200 202 216 216 214 218 218 217 219 217 216 218 221
335 335 330 329 327 324 335 342 328 339 351 21 183 223 308 331 336 342 343 275 287 254 257 229 212 230 234 215 190 178 191 222 235 224 204 199 191 174 162 159 186 197 165 155 177 236 227 161 166 174 173 183 190 190 191 189 188 202 198 194 189 176 171 158 159 173 198 221 188 179 222 256 201 213 218 195 200 213 212 217 222 219 216 217 217 217 218 219
333 335 329 327 328 327 331 335 329 336 349 332 277 275 299 322 333 341 359 283 274 223 185 185 193 255 296 211 173 166 184 245 239 211 200 200 192 189 191 166 165 172 131 144 203 217 178 164 178 192 180 183 196 195 188 190 196 195 163 173 177 172 172 168 172 191 202 161 156 182 210 253 256 231 186 189 207 214 214 220 224 220 218 217 216 218 219 221
330 332 329 325 326 326 324 323 327 333 322 304 305 290 301 315 305 290 320 294 269 133 184 191 194 266 303 184 182 192 317 338 253 205 200 198 185 187 200 179 171 165 148 177 212 179 159 185 186 185 190 197 200 185 172 184 201 200 137 168 177 178 180 175 183 200 186 159 188 189 188 232 255 242 133 180 208 218 221 221 221 220 218 217 216 216 220 224
327 329 328 322 320 319 315 316 322 320 306 302 301 293 308 307 263 207 189 259 302 30 187 182 157 131 104 159 196 229 297 280 303 312 192 194 189 186 197 184 172 162 166 193 218 196 168 205 194 185 195 204 203 174 168 185 202 132 122 129 134 157 170 175 196 192 149 203 218 185 178 211 252 228 147 168 212 224 225 222 220 219 217 216 215 215 217 223
324 327 328 320 317 315 310 312 315 304 298 295 292 296 306 276 177 174 198 216 319 310 210 208 155 136 135 144 213 236 249 256 274 117 165 184 191 186 166 172 169 158 168 201 220 211 197 203 187 195 208 193 190 183 181 190 173 128 126 112 93 90 121 133 181 144 151 220 226 190 186 205 253 237 170 182 215 217 218 222 221 217 216 216 216 215 214 218
323 325 326 320 316 311 307 310 308 297 292 288 289 279 214 150 172 213 201 206 316 237 209 253 157 97 124 139 306 234 219 249 224 155 160 176 187 172 139 154 163 162 173 196 208 213 242 213 173 209 212 180 181 193 198 198 161 146 144 134 126 105 120 116 81 169 200 222 227 203 192 203 240 243 183 201 223 218 214 221 218 212 214 215 215 216 214 216
324 323 323 319 312 303 300 302 297 288 287 281 263 225 180 171 227 220 189 326 286 196 150 167 148 352 310 234 239 234 229 239 201 173 172 176 183 181 176 173 166 173 191 194 187 195 227 220 193 228 204 180 187 191 188 190 181 182 166 156 168 163 168 180 175 194 214 225 239 180 186 205 241 255 244 232 237 232 225 227 223 214 212 212 212 213 213 216
324 324 322 317 309 300 293 291 284 278 279 261 220 189 183 224 223 189 187 212 209 77 80 144 235 293 290 298 286 242 244 227 200 189 175 174 185 191 200 187 172 182 196 185 187 191 208 223 216 221 212 186 194 196 188 179 186 194 174 171 186 175 181 192 174 185 224 230 269 127 180 214 248 256 251 242 244 240 230 234 236 229 221 217 214 213 213 216
325 326 322 318 311 297 288 285 273 268 265 224 190 170 198 226 221 176 199 215 234 343 102 146 314 303 284 302 325 316 248 207 160 198 184 173 187 196 208 203 186 186 152 168 196 197 204 220 197 198 193 175 196 212 195 160 177 198 182 185 198 180 192 197 176 195 199 200 141 132 178 211 191 231 245 236 252 258 245 240 237 232 235 231 219 212 211 214
325 326 323 321 309 289 285 278 257 256 240 189 173 199 208 213 204 175 207 218 243 283 261 80 338 314 303 248 281 349 225 309 58 209 203 180 189 194 190 194 195 188 158 176 194 183 212 233 186 191 195 174 193 207 168 157 183 197 173 202 210 182 179 188 184 197 167 153 176 170 212 230 217 307 293 246 261 268 254 243 230 223 223 220 212 207 207 211
324 325 329 327 306 290 288 273 256 247 214 178 179 220 215 216 186 179 196 197 208 241 272 295 287 271 274 241 202 152 220 277 28 290 210 194 216 198 184 186 187 187 184 185 179 154 209 225 166 180 212 195 194 177 171 192 191 157 182 207 205 150 171 178 157 82 140 214 197 174 232 249 253 284 273 248 253 254 246 237 229 218 204 205 208 206 208 212
328 330 334 332 311 315 304 277 259 231 196 181 205 221 211 232 208 203 211 162 182 132 171 234 223 214 240 219 177 157 342 324 15 331 228 205 243 197 189 191 179 189 195 192 203 194 205 215 175 187 210 213 205 189 194 204 175 153 200 182 106 55 214 192 201 168 184 223 206 172 221 225 204 244 258 243 248 250 247 233 226 207 189 204 213 210 213 216
330 330 333 327 320 340 340 310 249 201 185 189 228 229 214 217 208 211 212 150 146 132 169 212 212 189 232 220 177 175 332 333 342 335 275 215 237 179 184 189 178 192 196 196 214 202 198 225 194 196 209 198 182 196 210 203 182 209 195 159 139 202 195 168 212 194 192 223 212 186 217 226 213 215 231 242 241 251 257 240 215 199 198 209 213 212 216 216
330 330 328 299 302 334 351 342 207 183 182 200 221 225 213 214 224 230 225 210 162 189 206 220 216 219 212 202 208 207 310 309 281 319 266 217 237 181 187 197 191 196 192 189 197 160 180 226 214 193 205 171 156 195 214 204 187 42 161 167 185 227 189 182 199 185 201 221 216 199 210 213 213 210 216 234 239 246 259 254 220 211 211 213 213 211 212 214
334 331 308 301 308 320 344 352 172 178 202 219 212 220 204 216 237 237 234 233 212 207 225 216 210 224 218 223 258 254 265 264 248 260 230 207 256 221 207 205 192 195 189 188 192 171 169 219 223 171 130 176 189 198 213 211 193 186 192 186 188 196 172 204 199 170 210 215 205 219 225 196 191 207 212 225 232 230 243 254 243 226 218 220 222 218 215 215
341 333 279 313 313 311 327 340 177 192 242 239 227 235 233 245 250 248 245 235 226 230 235 216 207 214 220 233 244 230 234 245 232 231 229 226 248 239 216 208 177 142 159 182 201 199 174 194 217 199 170 203 207 193 210 219 205 197 204 197 192 189 173 203 211 186 204 219 196 220 241 212 173 195 211 218 228 229 234 244 255 255 244 235 230 224 221 220
342 308 296 310 304 299 306 261 208 212 234 250 274 261 258 264 255 256 252 227 221 227 224 221 214 209 218 232 234 222 233 250 236 231 237 230 235 247 239 197 153 136 157 191 206 199 170 166 213 218 216 216 209 181 203 224 211 201 207 205 202 202 198 210 217 179 173 218 131 201 251 231 168 188 210 215 226 238 240 239 250 261 260 256 242 228 225 223
320 300 311 313 303 295 250 242 232 204 228 259 284 280 272 267 253 252 243 214 211 212 207 212 212 216 223 222 229 228 224 243 242 228 232 233 234 243 240 215 136 127 197 212 199 181 155 152 206 223 240 237 229 179 126 230 210 206 211 204 201 209 214 221 219 172 190 196 163 194 240 211 162 182 219 235 250 257 254 242 238 254 261 262 253 236 228 223
307 302 309 315 326 334 191 249 264 230 258 280 287 280 266 261 259 252 243 228 216 200 199 209 206 217 222 212 223 223 206 221 238 224 225 230 228 240 245 245 253 233 204 214 194 171 172 189 195 209 229 232 227 214 199 199 203 213 215 203 206 209 208 213 134 150 219 199 185 213 230 190 169 146 198 244 256 259 257 246 238 249 259 259 254 244 233 224
311 303 301 307 319 254 217 302 351 303 316 320 297 280 264 255 247 242 244 248 243 229 225 229 215 218 223 211 221 224 209 219 239 227 217 219 224 250 251 238 228 223 230 233 206 180 188 193 183 200 218 219 218 217 213 200 191 216 215 196 209 206 195 183 149 205 223 188 187 221 227 183 187 235 218 226 238 249 254 249 243 249 256 258 254 246 233 222
314 303 294 314 321 250 230 286 26 5 350 338 307 282 259 255 252 244 240 237 237 234 235 241 228 225 230 225 231 235 224 225 235 235 228 224 221 227 231 229 236 257 268 255 219 195 190 191 189 200 215 219 220 216 196 180 188 209 212 200 202 202 196 189 197 216 205 154 202 222 218 211 208 205 218 222 219 235 248 247 242 246 251 254 253 246 232 223
282 298 321 333 325 287 231 101 40 1 337 323 306 307 287 277 282 256 230 224 230 226 224 231 229 227 225 220 229 237 231 229 231 236 245 248 252 265 284 296 292 284 299 285 224 189 173 214 201 203 213 219 223 218 195 191 204 209 211 210 200 193 196 200 213 210 153 164 221 209 190 216 211 196 211 219 217 227 242 242 239 243 246 249 248 239 225 219
252 293 336 344 311 282 290 327 341 331 311 294 278 286 289 283 290 285 244 259 263 218 208 220 221 223 228 224 229 233 226 226 231 235 239 242 253 268 280 285 267 252 323 315 213 177 211 228 202 205 219 221 225 223 201 196 214 213 211 212 202 193 195 201 214 205 163 202 232 200 180 208 209 204 212 216 215 217 226 233 237 242 245 245 240 226 215 213
275 290 311 329 302 284 295 302 312 309 292 287 268 259 275 281 291 312 302 302 296 218 212 220 209 219 249 251 249 234 219 223 230 228 222 229 236 240 255 264 235 207 314 323 207 164 254 241 199 205 223 228 231 230 205 197 219 223 217 213 204 199 198 201 210 204 191 214 229 198 191 207 209 209 212 217 222 225 233 238 237 237 237 233 225 215 209 210
290 293 306 326 310 289 289 290 297 300 291 286 265 252 276 284 308 343 321 277 273 233 199 217 279 351 317 273 246 227 223 259 272 260 241 238 232 212 225 252 222 190 60 20 14 2 278 264 184 193 223 235 235 232 217 208 218 226 226 221 210 204 202 204 211 203 194 213 228 204 202 217 222 221 227 239 242 239 241 237 227 226 224 218 214 212 210 211
303 295 283 298 300 283 285 291 296 298 292 273 258 280 312 313 340 340 312 251 246 261 290 15 351 343 321 276 249 229 237 343 297 278 277 266 261 250 226 251 322 282 358 62 12 325 306 294 337 164 229 240 230 237 232 216 215 227 230 223 211 204 204 208 208 194 188 203 217 215 215 229 234 225 228 247 251 238 237 235 229 228 221 214 214 214 213 213
323 313 261 262 281 281 289 300 292 278 274 277 332 340 317 311 336 333 309 261 252 259 320 6 349 330 307 282 268 281 326 315 289 277 273 264 263 267 257 245 263 277 258 114 91 330 327 312 319 319 266 263 268 269 240 209 211 230 231 222 213 203 202 210 209 200 200 201 205 211 215 226 228 203 198 223 226 224 235 237 234 230 224 220 221 221 218 214
Height
1529 1528 1527 1526 1525 1524 1523 1522 1521 1520 1519 1518 1517 1516 1515 1515 1514 1513 1512 1511 1511 1510 1509 1507 1506 1505 1504 1503 1501 1500 1498 1497 1496 1494 1492 1492 1493 1493 1493 1495 1496 1498 1498 1499 1500 1501 1502 1503 1504 1505 1506 1507 1507 1507 1507 1508 1508 1509 1512 1518 1522 1521 1519 1515 1515 1515 1514 1516 1518 1520 1521 1523 1526 1528 1529 1530 1532 1532 1533 1535 1535 1536 1537 1538 1539 1541 1543 1544
1528 1527 1526 1525 1524 1523 1522 1521 1520 1519 1518 1517 1516 1515 1514 1513 1512 1512 1511 1510 1509 1509 1508 1506 1505 1504 1503 1502 1500 1499 1497 1495 1493 1491 1491 1491 1491 1490 1489 1491 1493 1495 1495 1496 1497 1498 1500 1501 1502 1503 1505 1506 1506 1506 1506 1506 1507 1508 1512 1518 1517 1514 1511 1507 1508 1509 1510 1513 1516 1519 1521 1523 1524 1527 1529 1530 1531 1532 1533 1535 1536 1537 1537 1538 1540 1541 1543 1545
1526 1525 1524 1523 1522 1521 1521 1519 1519 1518 1517 1516 1515 1514 1513 1512 1511 1510 1510 1509 1508 1507 1506 1505 1504 1503 1502 1501 1500 1498 1496 1493 1490 1488 1489 1489 1488 1488 1487 1488 1490 1492 1493 1494 1495 1497 1499 1501 1502 1503 1504 1505 1505 1505 1505 1505 1506 1505 1510 1516 1512 1506 1506 1505 1506 1507 1509 1511 1513 1518 1521 1523 1524 1526 1528 1528 1531 1532 1531 1532 1534 1536 1537 1537 1539 1541 1543 1545
1525 1524 1523 1522 1521 1520 1519 1518 1517 1516 1515 1514 1514 1513 1512 1510 1509 1508 1508 1507 1507 1506 1505 1504 1503 1502 1501 1500 1499 1498 1496 1492 1487 1486 1487 1486 1487 1487 1486 1487 1488 1490 1491 1493 1494 1496 1498 1501 1502 1502 1504 1504 1504 1504 1503 1503 1504 1504 1507 1511 1506 1502 1505 1504 1505 1507 1509 1510 1512 1517 1520 1523 1524 1526 1527 1527 1531 1532 1529 1528 1529 1532 1534 1536 1538 1541 1543 1545
1524 1523 1522 1521 1520 1519 1517 1516 1515 1514 1514 1513 1512 1511 1510 1509 1508 1507 1506 1505 1505 1504 1503 1503 1501 1501 1500 1499 1498 1496 1497 1495 1487 1484 1486 1485 1486 1486 1486 1486 1487 1488 1490 1491 1493 1495 1497 1499 1501 1502 1503 1502 1502 1503 1502 1501 1502 1503 1503 1502 1501 1502 1504 1502 1503 1506 1509 1511 1513 1516 1518 1521 1523 1525 1526 1526 1528 1528 1525 1527 1528 1530 1532 1533 1536 1540 1542 1545
1523 1522 1521 1520 1518 1517 1516 1515 1514 1513 1512 1511 1510 1509 1508 1507 1506 1505 1504 1503 1502 1502 1501 1501 1500 1499 1498 1497 1497 1496 1498 1495 1485 1484 1485 1484 1485 1485 1485 1486 1486 1487 1488 1489 1491 1493 1495 1497 1499 1500 1500 1499 1500 1501 1500 1500 1501 1504 1502 1499 1500 1501 1501 1501 1503 1505 1507 1510 1512 1514 1516 1519 1522 1523 1524 1524 1524 1523 1524 1526 1528 1530 1532 1533 1536 1539 1541 1543
1521 1520 1519 1518 1517 1516 1514 1513 1512 1511 1510 1509 1508 1507 1506 1505 1504 1503 1502 1501 1500 1500 1500 1499 1498 1497 1497 1496 1495 1494 1495 1489 1483 1485 1485 1483 1484 1483 1484 1484 1484 1485 1485 1487 1488 1490 1493 1495 1496 1496 1497 1499 1499 1498 1498 1498 1499 1502 1502 1498 1499 1500 1499 1500 1502 1504 1505 1507 1510 1513 1516 1518 1519 1521 1523 1524 1523 1524 1525 1526 1528 1531 1533 1534 1536 1538 1540 1542
1520 1519 1518 1517 1515 1514 1513 1512 1510 1509 1508 1507 1506 1505 1504 1503 1502 1501 1500 1499 1498 1497 1497 1497 1496 1495 1495 1494 1493 1492 1489 1483 1482 1484 1483 1482 1483 1482 1482 1482 1483 1483 1483 1484 1485 1488 1491 1492 1493 1494 1496 1496 1496 1497 1497 1499 1499 1500 1501 1498 1498 1499 1499 1499 1501 1503 1505 1507 1510 1513 1515 1517 1518 1520 1521 1522 1523 1524 1524 1525 1528 1530 1533 1534 1536 1537 1539 1542
1519 1517 1516 1515 1514 1512 1511 1510 1509 1507 1506 1505 1504 1503 1501 1500 1499 1498 1497 1496 1496 1495 1495 1494 1494 1493 1493 1492 1492 1490 1483 1480 1481 1481 1481 1481 1481 1481 1481 1480 1481 1481 1481 1483 1485 1487 1489 1490 1491 1492 1494 1494 1494 1495 1495 1500 1500 1497 1497 1498 1497 1497 1498 1499 1501 1502 1505 1508 1510 1513 1516 1518 1520 1521 1522 1522 1523 1524 1524 1525 1527 1530 1532 1534 1536 1537 1539 1541
1517 1516 1515 1513 1512 1511 1510 1509 1507 1506 1505 1503 1502 1501 1499 1498 1496 1495 1494 1494 1493 1493 1492 1492 1491 1491 1490 1490 1491 1487 1479 1479 1480 1480 1480 1480 1479 1479 1479 1479 1479 1479 1480 1482 1484 1485 1487 1489 1490 1492 1493 1492 1493 1494 1495 1498 1498 1494 1496 1497 1496 1497 1497 1498 1500 1503 1505 1508 1509 1513 1517 1519 1520 1522 1523 1522 1523 1524 1525 1526 1527 1529 1531 1533 1535 1537 1539 1541
1516 1514 1513 1512 1510 1509 1508 1507 1505 1504 1503 1502 1500 1499 1497 1495 1494 1493 1492 1491 1491 1490 1490 1489 1489 1488 1487 1487 1487 1482 1477 1479 1479 1478 1479 1478 1478 1478 1478 1478 1477 1477 1479 1481 1483 1485 1487 1489 1490 1492 1493 1492 1493 1494 1494 1495 1494 1494 1495 1497 1498 1497 1498 1499 1501 1503 1505 1509 1512 1512 1517 1520 1522 1522 1519 1519 1522 1523 1524 1526 1528 1529 1531 1533 1535 1537 1538 1540
1514 1513 1511 1510 1509 1507 1506 1505 1503 1502 1501 1500 1499 1497 1495 1493 1492 1490 1489 1489 1488 1488 1487 1487 1486 1485 1484 1484 1480 1477 1477 1478 1476 1476 1477 1476 1477 1477 1477 1477 1477 1476 1478 1480 1482 1485 1487 1488 1489 1491 1491 1491 1492 1495 1495 1493 1493 1493 1494 1500 1503 1500 1502 1502 1501 1503 1504 1509 1511 1513 1523 1525 1522 1519 1516 1518 1521 1523 1524 1526 1527 1529 1531 1533 1535 1536 1538 1539
1513 1511 1510 1508 1507 1505 1504 1502 1501 1500 1499 1498 1496 1495 1493 1491 1490 1488 1487 1486 1486 1485 1485 1485 1484 1483 1482 1478 1473 1474 1476 1475 1474 1474 1474 1474 1475 1475 1476 1476 1476 1477 1478 1480 1482 1485 1487 1487 1488 1489 1490 1490 1491 1493 1493 1492 1493 1495 1494 1498 1505 1507 1508 1503 1502 1504 1504 1509 1509 1513 1527 1525 1516 1516 1516 1518 1520 1522 1525 1526 1527 1529 1531 1532 1534 1535 1537 1538
1512 1510 1508 1507 1505 1504 1502 1501 1499 1498 1497 1496 1494 1493 1491 1489 1488 1486 1485 1484 1483 1483 1483 1483 1482 1481 1479 1473 1470 1473 1473 1472 1473 1472 1472 1472 1472 1473 1475 1475 1477 1477 1478 1481 1483 1484 1486 1487 1488 1488 1489 1489 1490 1491 1492 1493 1494 1496 1498 1500 1504 1511 1512 1504 1503 1504 1507 1512 1508 1512 1524 1518 1511 1514 1515 1517 1519 1520 1523 1524 1526 1528 1529 1531 1532 1534 1535 1537
1510 1509 1507 1505 1504 1502 1500 1499 1497 1496 1495 1493 1492 1490 1488 1487 1486 1484 1483 1482 1482 1482 1481 1481 1480 1479 1477 1470 1468 1470 1469 1470 1471 1471 1471 1471 1471 1472 1473 1475 1477 1478 1479 1481 1482 1483 1484 1486 1487 1487 1488 1489 1489 1492 1495 1497 1497 1497 1504 1510 1507 1508 1510 1506 1503 1503 1506 1511 1509 1514 1523 1515 1509 1511 1513 1517 1518 1519 1521 1523 1525 1526 1528 1530 1531 1532 1534 1536
1509 1507 1505 1504 1502 1501 1499 1497 1495 1494 1493 1491 1489 1488 1486 1485 1483 1482 1481 1480 1480 1480 1479 1479 1478 1478 1476 1469 1467 1468 1468 1469 1469 1470 1470 1470 1470 1471 1472 1474 1476 1477 1479 1480 1481 1482 1483 1485 1486 1486 1487 1488 1489 1493 1498 1503 1504 1501 1504 1511 1509 1508 1512 1510 1505 1502 1503 1508 1510 1513 1517 1514 1509 1508 1511 1514 1516 1518 1519 1521 1523 1524 1526 1528 1530 1531 1533 1534
1507 1506 1504 1502 1501 1499 1498 1496 1494 1492 1491 1490 1487 1486 1484 1483 1481 1480 1479 1478 1478 1477 1478 1477 1476 1477 1473 1466 1466 1467 1467 1468 1468 1469 1469 1469 1470 1470 1471 1473 1474 1477 1478 1479 1481 1482 1483 1484 1485 1486 1485 1487 1488 1491 1501 1510 1510 1507 1505 1507 1507 1506 1509 1511 1508 1503 1502 1507 1511 1511 1513 1512 1509 1508 1510 1512 1514 1517 1518 1519 1521 1523 1525 1526 1528 1530 1531 1532
1505 1503 1502 1500 1499 1498 1496 1494 1492 1490 1489 1488 1485 1483 1482 1480 1479 1478 1476 1476 1476 1476 1476 1475 1476 1477 1470 1463 1465 1466 1466 1467 1467 1468 1468 1468 1469 1469 1470 1472 1473 1475 1477 1479 1480 1481 1483 1483 1484 1486 1486 1488 1488 1490 1501 1506 1503 1505 1506 1506 1507 1507 1506 1507 1506 1501 1501 1507 1510 1513 1514 1509 1507 1508 1510 1512 1514 1515 1516 1517 1519 1521 1523 1524 1526 1528 1529 1530
1503 1501 1500 1498 1497 1496 1495 1493 1491 1489 1487 1486 1484 1482 1480 1478 1477 1476 1475 1475 1475 1474 1474 1472 1473 1473 1467 1462 1463 1464 1465 1466 1466 1466 1467 1467 1468 1468 1469 1471 1472 1474 1476 1478 1479 1479 1481 1483 1486 1488 1488 1488 1487 1486 1491 1493 1492 1496 1499 1501 1504 1505 1504 1502 1499 1496 1499 1508 1510 1510 1511 1507 1507 1508 1509 1511 1513 1514 1516 1517 1518 1519 1521 1522 1524 1525 1526 1527
1502 1500 1498 1496 1495 1495 1494 1491 1489 1488 1486 1484 1483 1481 1479 1478 1476 1475 1474 1473 1472 1471 1469 1469 1468 1466 1462 1460 1461 1462 1463 1463 1464 1464 1465 1466 1467 1467 1469 1470 1471 1473 1475 1476 1479 1478 1479 1484 1486 1485 1484 1483 1483 1483 1484 1485 1487 1491 1496 1500 1499 1500 1501 1498 1498 1495 1496 1508 1511 1506 1508 1507 1507 1508 1508 1511 1513 1513 1515 1515 1516 1517 1519 1520 1521 1522 1523 1524
1500 1498 1496 1494 1493 1493 1492 1490 1488 1487 1485 1483 1482 1481 1480 1481 1480 1478 1475 1469 1466 1467 1465 1463 1465 1461 1456 1457 1459 1460 1461 1460 1460 1462 1464 1465 1465 1467 1468 1468 1470 1474 1474 1475 1477 1478 1480 1483 1481 1479 1479 1479 1480 1480 1482 1486 1488 1490 1494 1499 1499 1499 1500 1497 1498 1497 1495 1506 1510 1507 1510 1510 1508 1509 1508 1510 1511 1510 1509 1511 1513 1514 1516 1518 1519 1520 1521 1522
1499 1497 1495 1493 1491 1491 1491 1489 1487 1486 1484 1483 1482 1481 1481 1482 1482 1482 1479 1471 1461 1461 1461 1458 1459 1455 1451 1453 1455 1457 1460 1459 1457 1458 1460 1463 1464 1465 1466 1467 1470 1472 1474 1475 1477 1481 1482 1480 1476 1475 1476 1478 1480 1481 1482 1486 1489 1491 1492 1497 1501 1499 1500 1500 1498 1497 1496 1505 1509 1508 1512 1510 1506 1507 1507 1507 1507 1506 1507 1508 1510 1513 1514 1515 1516 1517 1519 1521
1498 1495 1493 1491 1489 1490 1489 1487 1486 1484 1483 1482 1481 1481 1481 1481 1481 1481 1482 1477 1461 1454 1455 1453 1453 1451 1448 1449 1450 1453 1455 1454 1454 1454 1456 1459 1461 1462 1464 1466 1469 1471 1474 1475 1477 1481 1483 1477 1472 1474 1476 1479 1483 1483 1483 1486 1488 1490 1491 1496 1499 1497 1501 1505 1502 1499 1498 1502 1506 1507 1511 1509 1506 1506 1505 1504 1505 1506 1508 1508 1510 1511 1512 1511 1512 1514 1516 1518
1497 1494 1492 1490 1488 1487 1487 1486 1484 1484 1483 1481 1480 1480 1480 1480 1481 1480 1479 1477 1464 1452 1449 1449 1449 1448 1447 1447 1447 1448 1450 1450 1450 1450 1452 1455 1457 1460 1461 1463 1467 1471 1473 1473 1475 1478 1477 1472 1470 1474 1477 1478 1483 1485 1484 1486 1489 1490 1488 1491 1494 1494 1496 1499 1499 1500 1501 1504 1503 1507 1516 1511 1504 1507 1504 1501 1503 1504 1505 1507 1507 1508 1508 1509 1511 1512 1513 1514
1496 1494 1491 1489 1487 1485 1486 1485 1483 1484 1482 1480 1480 1480 1480 1480 1479 1480 1478 1477 1468 1452 1446 1447 1447 1445 1445 1445 1446 1446 1448 1448 1446 1446 1449 1451 1453 1457 1459 1461 1465 1470 1472 1473 1476 1477 1474 1471 1470 1474 1477 1477 1481 1484 1482 1483 1488 1490 1487 1484 1486 1490 1492 1495 1498 1501 1509 1514 1504 1507 1526 1517 1500 1503 1501 1498 1501 1502 1502 1503 1502 1504 1505 1507 1508 1509 1510 1511
1495 1493 1490 1488 1486 1483 1484 1484 1482 1483 1481 1481 1481 1479 1481 1479 1479 1479 1477 1479 1471 1451 1445 1447 1445 1444 1443 1444 1444 1445 1448 1446 1442 1444 1447 1449 1451 1454 1458 1460 1462 1466 1469 1471 1475 1475 1471 1470 1471 1473 1476 1478 1480 1481 1479 1478 1486 1491 1483 1479 1483 1486 1490 1495 1496 1501 1511 1513 1500 1501 1520 1517 1502 1500 1497 1496 1500 1499 1500 1500 1498 1499 1501 1501 1503 1504 1506 1507
1493 1492 1489 1487 1485 1482 1482 1482 1483 1482 1480 1481 1480 1479 1480 1478 1480 1478 1477 1484 1472 1448 1444 1446 1444 1443 1442 1442 1443 1445 1449 1444 1439 1442 1443 1447 1449 1450 1456 1459 1461 1464 1465 1470 1477 1473 1469 1471 1473 1473 1474 1477 1478 1478 1476 1475 1483 1486 1476 1475 1483 1485 1489 1492 1493 1499 1501 1502 1501 1499 1507 1515 1508 1498 1493 1495 1499 1500 1498 1496 1494 1494 1495 1496 1498 1499 1500 1503
1492 1491 1488 1486 1485 1483 1481 1482 1482 1480 1480 1480 1478 1480 1479 1478 1481 1477 1481 1490 1469 1443 1443 1443 1441 1442 1441 1442 1442 1442 1443 1440 1440 1442 1440 1444 1448 1448 1452 1454 1457 1461 1460 1468 1476 1470 1466 1471 1473 1473 1476 1476 1473 1471 1471 1473 1479 1479 1473 1475 1480 1482 1485 1486 1490 1495 1495 1502 1512 1506 1505 1519 1514 1495 1491 1495 1497 1500 1495 1490 1488 1487 1488 1490 1492 1494 1496 1498
1490 1489 1487 1484 1483 1483 1481 1480 1480 1479 1479 1479 1478 1479 1477 1478 1479 1475 1486 1488 1459 1440 1443 1441 1440 1442 1440 1442 1443 1441 1440 1439 1440 1440 1439 1444 1446 1446 1450 1450 1452 1458 1458 1461 1468 1466 1464 1466 1466 1469 1473 1473 1469 1468 1468 1471 1475 1473 1472 1475 1478 1481 1484 1486 1490 1494 1499 1509 1513 1507 1506 1518 1512 1491 1492 1499 1498 1493 1486 1481 1480 1479 1482 1485 1486 1489 1491 1494
1488 1487 1486 1482 1480 1480 1478 1478 1479 1477 1477 1477 1478 1477 1477 1478 1477 1482 1496 1483 1453 1443 1442 1439 1441 1442 1441 1443 1443 1441 1440 1439 1438 1438 1440 1443 1444 1445 1446 1448 1450 1455 1459 1460 1462 1462 1460 1461 1462 1464 1466 1465 1465 1468 1467 1468 1470 1469 1473 1479 1484 1489 1488 1492 1494 1494 1509 1517 1507 1500 1500 1509 1509 1489 1484 1491 1485 1477 1475 1475 1474 1474 1477 1479 1481 1484 1486 1488
1485 1485 1484 1481 1478 1477 1475 1475 1475 1475 1475 1476 1476 1476 1477 1477 1477 1489 1492 1468 1449 1446 1441 1440 1443 1440 1442 1444 1443 1441 1439 1439 1436 1438 1442 1442 1444 1445 1445 1450 1453 1457 1463 1463 1463 1463 1461 1463 1463 1460 1460 1460 1463 1468 1468 1467 1467 1469 1474 1480 1489 1497 1496 1501 1503 1503 1518 1519 1501 1494 1495 1505 1509 1488 1475 1475 1467 1464 1468 1468 1467 1467 1469 1471 1474 1477 1480 1483
1483 1482 1481 1480 1477 1475 1473 1473 1472 1472 1473 1474 1475 1475 1475 1480 1482 1482 1472 1456 1451 1447 1440 1442 1443 1440 1442 1442 1442 1440 1438 1438 1435 1435 1439 1440 1444 1444 1443 1448 1452 1461 1470 1466 1465 1466 1463 1461 1460 1458 1457 1457 1462 1469 1470 1471 1470 1470 1475 1480 1492 1506 1509 1513 1515 1513 1516 1511 1496 1494 1497 1504 1501 1481 1469 1469 1464 1461 1460 1458 1459 1460 1461 1465 1467 1471 1475 1478
1480 1478 1477 1477 1475 1472 1471 1470 1469 1470 1470 1471 1474 1472 1475 1483 1479 1465 1458 1453 1449 1442 1439 1442 1441 1440 1442 1440 1440 1438 1437 1438 1434 1433 1435 1437 1442 1442 1440 1441 1442 1452 1462 1462 1464 1468 1466 1462 1458 1459 1458 1454 1457 1465 1470 1473 1472 1471 1473 1478 1489 1503 1514 1521 1522 1520 1515 1504 1494 1495 1500 1503 1494 1475 1465 1463 1458 1454 1454 1454 1456 1458 1460 1463 1465 1468 1472 1475
1477 1475 1473 1472 1471 1469 1468 1468 1467 1466 1468 1470 1471 1472 1477 1481 1468 1454 1452 1448 1442 1439 1440 1441 1440 1440 1440 1440 1440 1437 1437 1437 1433 1434 1436 1437 1442 1443 1442 1442 1439 1442 1451 1459 1462 1463 1470 1469 1457 1456 1457 1452 1453 1456 1459 1464 1468 1468 1464 1468 1478 1486 1497 1509 1512 1512 1508 1501 1498 1502 1501 1497 1488 1471 1458 1454 1451 1449 1451 1453 1454 1457 1459 1461 1463 1466 1469 1472
1474 1473 1471 1468 1467 1466 1465 1466 1465 1464 1466 1467 1468 1472 1473 1468 1458 1453 1450 1443 1440 1440 1439 1439 1441 1442 1441 1440 1439 1436 1437 1437 1434 1435 1436 1436 1439 1440 1439 1441 1440 1441 1447 1458 1460 1458 1466 1464 1449 1448 1450 1448 1452 1451 1450 1458 1467 1466 1461 1467 1473 1469 1474 1489 1495 1493 1493 1498 1503 1503 1495 1481 1471 1461 1451 1450 1451 1448 1448 1449 1450 1453 1455 1458 1461 1462 1464 1466
1470 1469 1468 1466 1464 1464 1463 1463 1463 1463 1464 1464 1467 1468 1460 1451 1449 1448 1443 1439 1440 1440 1439 1441 1442 1444 1444 1441 1439 1437 1435 1435 1435 1435 1435 1435 1435 1434 1434 1434 1434 1437 1440 1449 1455 1457 1464 1460 1446 1447 1449 1445 1448 1448 1447 1455 1462 1465 1467 1468 1465 1458 1464 1481 1493 1491 1491 1498 1498 1495 1488 1475 1470 1462 1450 1449 1451 1447 1445 1446 1445 1447 1450 1453 1455 1455 1458 1460
1467 1465 1464 1463 1462 1462 1460 1459 1460 1461 1461 1461 1462 1458 1448 1444 1443 1441 1438 1438 1439 1438 1441 1446 1443 1442 1444 1441 1440 1439 1435 1434 1435 1435 1436 1437 1433 1429 1430 1429 1428 1431 1431 1437 1445 1447 1453 1455 1445 1444 1449 1444 1442 1445 1445 1445 1450 1461 1466 1460 1458 1462 1464 1473 1489 1497 1499 1499 1493 1490 1485 1477 1478 1471 1453 1450 1453 1447 1443 1441 1441 1444 1447 1448 1448 1449 1451 1453
1466 1463 1462 1461 1460 1459 1457 1456 1456 1457 1459 1459 1456 1450 1444 1442 1440 1438 1438 1437 1438 1437 1440 1444 1441 1439 1442 1442 1440 1438 1436 1436 1436 1436 1437 1437 1431 1425 1425 1427 1426 1426 1425 1429 1438 1440 1444 1453 1447 1440 1443 1441 1439 1446 1450 1444 1443 1450 1452 1447 1454 1470 1474 1475 1484 1492 1498 1499 1492 1489 1485 1476 1474 1469 1455 1451 1451 1446 1441 1438 1439 1442 1442 1442 1442 1443 1446 1448
1466 1463 1460 1459 1459 1457 1456 1455 1454 1456 1457 1456 1452 1447 1442 1440 1437 1437 1437 1436 1437 1438 1439 1440 1438 1438 1440 1440 1439 1437 1436 1437 1436 1437 1438 1436 1431 1423 1421 1423 1423 1423 1422 1424 1433 1436 1439 1451 1450 1440 1439 1440 1441 1446 1450 1448 1445 1446 1447 1447 1451 1458 1464 1468 1470 1472 1482 1491 1489 1489 1488 1477 1464 1457 1452 1450 1445 1442 1440 1437 1436 1436 1435 1436 1437 1439 1442 1444
1467 1463 1460 1458 1457 1456 1456 1455 1455 1456 1454 1449 1446 1443 1439 1438 1436 1435 1435 1436 1436 1436 1437 1437 1437 1438 1438 1436 1437 1436 1435 1435 1435 1436 1436 1434 1430 1425 1419 1419 1420 1421 1421 1422 1427 1431 1436 1446 1449 1443 1441 1443 1444 1443 1441 1442 1445 1448 1451 1453 1454 1453 1455 1459 1461 1460 1466 1478 1484 1487 1485 1469 1452 1446 1445 1443 1439 1436 1435 1433 1431 1429 1429 1431 1432 1434 1437 1439
1467 1464 1459 1457 1456 1455 1456 1456 1455 1455 1451 1445 1442 1441 1438 1437 1434 1433 1434 1434 1434 1434 1434 1434 1435 1436 1436 1435 1435 1435 1435 1434 1432 1434 1434 1431 1430 1427 1418 1415 1417 1420 1423 1426 1428 1429 1434 1441 1445 1444 1443 1443 1439 1433 1431 1432 1435 1441 1446 1448 1449 1450 1454 1462 1467 1463 1459 1465 1471 1475 1475 1459 1441 1436 1437 1435 1433 1430 1428 1429 1428 1426 1426 1427 1428 1430 1432 1434
1467 1464 1458 1456 1455 1453 1455 1454 1452 1451 1449 1444 1441 1439 1438 1435 1433 1432 1432 1432 1433 1432 1432 1432 1432 1433 1433 1434 1433 1433 1434 1433 1432 1432 1431 1428 1428 1425 1417 1413 1415 1417 1421 1426 1425 1423 1427 1436 1441 1441 1438 1435 1430 1426 1427 1428 1428 1432 1436 1438 1440 1443 1447 1457 1465 1463 1460 1462 1462 1465 1469 1454 1431 1427 1430 1428 1426 1425 1425 1427 1426 1424 1424 1425 1427 1429 1430 1431
1466 1461 1455 1454 1453 1452 1454 1452 1448 1448 1445 1442 1439 1438 1436 1435 1433 1431 1430 1430 1430 1430 1431 1430 1430 1430 1430 1430 1431 1431 1433 1433 1430 1429 1428 1426 1423 1419 1416 1415 1415 1416 1418 1422 1422 1420 1425 1434 1441 1441 1435 1429 1426 1425 1426 1427 1429 1432 1432 1430 1433 1437 1437 1441 1448 1452 1455 1459 1460 1467 1472 1453 1428 1424 1427 1425 1424 1425 1424 1425 1425 1423 1422 1423 1425 1426 1428 1430
1465 1459 1453 1453 1451 1451 1452 1449 1446 1445 1443 1441 1440 1437 1435 1433 1432 1431 1429 1429 1428 1428 1429 1427 1427 1427 1427 1427 1428 1428 1430 1432 1428 1424 1423 1424 1419 1415 1414 1414 1416 1417 1417 1418 1418 1419 1425 1432 1437 1445 1448 1444 1440 1437 1435 1432 1432 1432 1430 1428 1428 1430 1433 1437 1443 1449 1452 1450 1451 1461 1465 1448 1428 1425 1426 1425 1426 1425 1423 1422 1422 1422 1420 1421 1423 1423 1425 1428
1465 1458 1453 1452 1451 1451 1450 1448 1447 1446 1444 1443 1441 1437 1434 1432 1429 1429 1428 1426 1425 1426 1426 1425 1424 1424 1423 1424 1426 1424 1425 1428 1426 1422 1420 1420 1417 1413 1413 1414 1415 1415 1413 1414 1413 1415 1421 1426 1429 1440 1450 1453 1450 1444 1436 1432 1431 1430 1429 1429 1429 1429 1432 1437 1444 1452 1454 1449 1445 1449 1451 1440 1429 1426 1426 1426 1427 1425 1421 1419 1420 1420 1419 1419 1420 1421 1423 1425
1468 1462 1455 1452 1450 1450 1449 1448 1448 1448 1446 1446 1442 1436 1434 1431 1427 1426 1425 1424 1423 1423 1423 1423 1421 1422 1423 1423 1425 1424 1422 1422 1423 1421 1419 1419 1416 1412 1412 1413 1414 1414 1412 1410 1411 1414 1419 1421 1421 1425 1430 1432 1432 1428 1422 1422 1428 1430 1429 1428 1429 1429 1429 1433 1441 1445 1446 1448 1447 1441 1439 1438 1432 1428 1426 1425 1424 1423 1419 1416 1417 1417 1416 1416 1417 1420 1422 1424
1469 1465 1459 1456 1453 1449 1447 1447 1448 1448 1448 1448 1444 1437 1434 1432 1428 1425 1422 1421 1421 1420 1421 1420 1420 1421 1422 1421 1423 1423 1420 1419 1420 1419 1418 1417 1414 1411 1411 1412 1412 1412 1410 1407 1407 1411 1418 1419 1416 1416 1417 1415 1414 1415 1415 1417 1420 1422 1423 1424 1424 1426 1426 1430 1435 1433 1434 1445 1446 1436 1434 1438 1432 1424 1423 1422 1421 1420 1417 1414 1413 1413 1413 1414 1416 1418 1421 1422
1468 1464 1461 1461 1459 1453 1449 1448 1448 1449 1448 1447 1444 1439 1435 1432 1430 1427 1423 1420 1419 1418 1419 1419 1418 1418 1417 1417 1420 1420 1419 1420 1419 1417 1417 1417 1415 1413 1412 1410 1410 1410 1409 1407 1405 1407 1414 1415 1411 1411 1413 1409 1407 1408 1411 1414 1414 1413 1415 1417 1418 1421 1424 1426 1428 1426 1428 1436 1436 1430 1432 1433 1426 1420 1418 1416 1414 1414 1411 1409 1409 1409 1410 1412 1414 1416 1418 1419
1466 1464 1461 1461 1460 1456 1453 1451 1450 1449 1447 1445 1443 1438 1435 1433 1430 1429 1426 1423 1419 1416 1417 1418 1416 1416 1416 1416 1418 1420 1419 1419 1419 1416 1415 1414 1414 1414 1414 1412 1410 1408 1408 1408 1406 1406 1411 1411 1407 1409 1411 1408 1406 1407 1408 1412 1414 1412 1411 1410 1411 1414 1416 1418 1419 1419 1421 1424 1421 1421 1426 1425 1417 1412 1410 1407 1407 1408 1407 1407 1407 1407 1408 1410 1412 1414 1414 1415
1466 1465 1463 1462 1460 1456 1453 1452 1450 1448 1445 1444 1442 1437 1434 1433 1432 1431 1429 1426 1423 1417 1415 1417 1416 1417 1418 1416 1417 1418 1416 1416 1417 1415 1413 1414 1412 1412 1413 1412 1409 1407 1408 1408 1408 1408 1410 1411 1408 1408 1411 1409 1405 1405 1407 1410 1412 1412 1410 1408 1407 1409 1411 1413 1413 1413 1417 1420 1418 1418 1424 1421 1410 1404 1404 1404 1405 1407 1407 1406 1405 1405 1406 1407 1409 1410 1410 1411
1466 1465 1464 1463 1460 1455 1453 1450 1450 1449 1445 1442 1440 1437 1435 1434 1434 1434 1429 1424 1422 1419 1416 1418 1419 1418 1417 1416 1415 1415 1413 1415 1417 1415 1413 1414 1412 1410 1410 1409 1408 1409 1408 1409 1412 1410 1410 1412 1408 1408 1414 1411 1403 1404 1407 1405 1408 1411 1408 1406 1407 1409 1410 1410 1409 1410 1413 1417 1418 1421 1424 1418 1406 1400 1403 1404 1404 1406 1405 1403 1402 1402 1402 1404 1404 1404 1405 1407
1465 1464 1463 1464 1460 1455 1453 1451 1449 1449 1445 1441 1439 1439 1438 1436 1435 1436 1431 1422 1419 1420 1419 1420 1421 1419 1417 1417 1415 1413 1413 1414 1414 1412 1412 1412 1411 1409 1408 1407 1408 1410 1409 1408 1411 1412 1412 1412 1409 1410 1416 1411 1403 1404 1404 1406 1417 1418 1406 1400 1402 1405 1406 1406 1406 1405 1405 1407 1412 1416 1413 1405 1398 1398 1402 1403 1403 1403 1401 1399 1399 1399 1398 1399 1399 1400 1401 1404